Temp
28 30 30 30 29 28 29 29 28 29 30 30 27 26 29 29 24 23 27 27 25 26 29 29 28 29 28 25 24 23 22 22 22 22 22 23 24 23 24 23 22 22 22 23 23 23 24 24 23 24 24 24 24 24 24 23 23 24 25 26 26 26 26 26 26 26 27 27 28 28 28 28 28 28 29 29 29 29 28 28 28 27 27 27 27 27 26
27 29 30 30 30 28 28 29 29 30 30 29 29 29 31 30 27 28 30 28 26 27 28 29 29 28 28 27 25 25 25 23 22 22 22 22 22 22 22 22 22 22 22 23 23 23 23 23 22 22 23 23 23 23 24 24 23 24 24 25 25 25 25 25 25 26 26 26 26 27 27 27 27 27 27 28 28 28 28 28 27 27 27 27 27 27 27
25 28 29 30 29 28 27 27 29 30 29 29 29 29 29 28 27 29 30 27 25 26 27 28 28 28 28 27 26 26 26 24 22 22 21 21 21 21 20 21 21 22 21 21 22 23 23 22 22 22 23 23 23 23 23 24 24 24 24 24 24 24 24 24 25 25 25 24 25 25 25 26 26 26 26 26 26 27 27 27 26 26 26 26 26 26 26
23 27 28 28 29 28 26 25 27 28 27 28 29 28 26 25 25 26 27 25 24 25 26 27 28 27 26 25 25 24 24 24 23 21 21 21 21 21 20 20 20 21 20 20 21 21 21 22 22 22 23 23 23 23 23 23 24 24 24 24 24 24 24 24 24 24 24 23 24 24 24 24 23 24 24 25 25 25 26 26 26 25 25 25 25 25 25
22 26 28 27 27 25 23 24 27 27 27 28 29 27 25 25 25 25 24 23 24 26 26 26 26 25 23 22 22 22 22 23 23 22 21 21 22 22 21 20 20 20 20 20 20 19 20 20 21 21 22 22 22 23 23 22 22 22 22 23 23 23 23 23 23 23 23 23 23 23 24 24 23 23 23 23 24 24 24 25 25 25 25 25 26 25 25
21 25 27 26 24 22 22 25 28 28 27 27 27 26 25 25 25 25 24 23 24 25 24 25 24 22 21 21 21 22 22 22 23 22 22 22 22 22 21 20 20 20 20 19 19 19 19 19 19 19 20 20 21 21 21 21 21 21 21 21 21 22 22 22 22 22 22 22 22 22 22 23 23 23 23 23 23 23 23 24 25 25 25 25 25 26 26
22 24 24 22 21 21 24 27 29 28 28 28 27 26 26 25 25 25 25 24 24 24 24 24 23 22 22 21 21 22 22 22 23 23 22 22 22 21 21 20 20 20 20 20 20 19 19 19 19 20 20 19 20 20 20 20 20 20 20 20 20 20 21 21 21 21 22 22 21 21 22 22 22 22 22 22 23 23 23 23 24 24 24 24 25 25 25
23 22 22 21 22 24 27 28 28 28 28 28 27 25 24 25 25 25 25 24 24 24 23 22 21 21 22 21 20 20 21 22 23 22 22 22 22 22 21 21 21 21 21 21 21 20 20 20 20 20 20 20 20 20 19 19 19 19 19 19 19 19 20 20 20 20 21 21 20 21 21 21 21 21 21 21 22 23 23 23 23 23 23 23 24 24 24
23 21 21 22 23 24 25 26 27 28 27 27 26 24 23 24 26 25 25 24 24 23 21 21 20 20 21 21 20 20 20 21 21 22 22 22 22 22 22 22 21 21 21 21 21 20 21 21 21 20 20 20 20 19 19 19 18 19 19 19 19 19 19 20 20 20 20 20 21 21 21 20 20 20 20 21 21 22 22 22 22 22 22 22 23 23 23
23 21 21 22 22 21 22 24 26 28 28 28 28 25 22 24 26 26 25 24 24 23 21 20 20 20 20 20 19 19 19 20 21 21 22 22 22 22 21 21 21 21 21 22 21 21 21 21 21 20 20 20 20 19 19 19 19 19 19 19 19 19 19 19 20 20 20 20 20 20 20 20 20 20 20 20 21 21 21 21 21 21 21 22 22 22 21
23 21 20 21 21 20 22 24 26 28 28 28 28 24 21 23 25 26 26 24 23 22 22 22 21 20 19 19 18 18 19 20 21 22 22 22 22 21 21 21 20 20 21 21 22 22 22 22 22 21 21 21 21 20 20 20 19 19 19 19 19 19 19 19 19 19 20 20 20 20 19 19 20 20 20 20 20 20 20 20 20 21 21 21 21 21 20
22 22 21 21 20 21 23 24 25 27 27 27 25 22 20 22 24 25 25 23 21 21 21 22 21 19 19 18 17 18 18 18 19 20 21 21 21 21 21 21 21 21 21 20 20 21 21 21 21 21 21 21 21 21 21 20 20 19 19 18 19 19 19 19 19 19 20 20 20 20 20 20 20 20 20 20 20 20 20 20 20 20 20 20 20 20 20
22 22 21 20 21 22 24 25 25 26 26 25 22 20 21 23 24 24 24 22 20 20 20 20 19 18 18 18 18 18 18 18 19 19 20 20 20 20 20 21 20 20 20 20 20 20 20 20 20 20 20 20 20 20 20 20 20 19 19 19 19 19 19 19 19 20 20 20 20 20 20 20 20 20 20 20 20 20 20 20 19 19 19 19 19 19 19
22 22 22 20 21 23 24 25 25 25 24 22 21 21 23 24 24 24 23 21 21 20 19 19 19 18 18 18 18 19 19 19 19 19 19 19 19 19 20 20 20 20 19 19 19 19 19 19 19 19 19 19 19 19 19 20 20 19 19 19 19 19 19 19 19 19 20 20 20 20 20 20 20 20 20 20 20 20 20 19 19 19 19 19 19 19 18
22 22 21 20 20 22 25 25 24 24 23 22 22 23 24 24 24 23 22 21 21 21 19 19 19 19 19 19 19 19 19 19 19 18 18 17 17 17 18 18 19 19 19 19 19 18 18 18 18 18 18 18 18 18 18 19 19 19 19 18 18 18 19 19 19 19 20 21 21 20 20 20 20 20 20 20 20 20 20 20 19 19 19 19 19 19 18
22 20 20 21 22 24 25 24 23 23 23 24 24 24 24 24 24 23 21 20 20 21 20 19 19 19 20 19 19 19 19 19 19 18 18 17 17 16 16 17 17 17 17 18 18 18 18 18 17 17 17 18 18 18 18 18 18 19 19 19 19 19 19 19 19 19 20 20 20 20 20 20 20 20 20 20 20 20 20 20 20 20 19 19 19 18 18
24 22 22 24 24 24 25 24 24 24 24 25 25 24 24 24 24 23 21 20 20 20 20 20 20 19 19 20 20 20 20 19 19 19 19 18 18 17 16 16 16 17 16 16 17 16 17 17 17 17 17 17 17 17 17 17 17 18 18 19 19 19 19 19 19 19 19 20 20 21 21 21 21 21 21 21 21 21 21 21 21 21 20 19 19 19 18
24 24 24 25 25 25 25 24 24 24 24 24 24 24 23 23 24 23 22 21 20 20 20 20 20 19 19 19 19 20 20 20 19 19 19 19 19 18 17 17 16 16 16 16 15 15 16 16 17 17 17 17 16 16 17 17 17 17 18 18 19 19 19 19 20 19 19 19 20 20 20 20 21 21 21 21 21 21 21 21 21 22 22 21 20 20 19
23 22 23 24 25 24 24 24 24 24 24 24 24 24 23 23 23 23 22 21 21 21 21 20 19 19 19 18 17 18 20 20 20 20 19 19 19 19 18 17 16 16 16 15 15 14 15 15 16 16 16 16 16 16 16 17 17 17 17 18 18 19 19 19 20 20 20 20 20 20 20 19 20 20 21 21 20 19 19 19 20 21 22 22 22 21 21
22 22 22 24 24 24 24 24 23 23 23 23 24 24 23 23 23 23 22 21 21 21 21 20 20 20 19 18 18 18 19 20 20 20 19 19 19 18 17 17 17 17 17 16 15 14 14 15 15 15 15 15 15 15 15 16 16 17 17 18 18 19 19 19 19 20 20 20 20 20 19 19 19 19 19 19 18 18 18 18 18 18 19 20 21 21 21
22 21 22 22 23 23 22 23 23 23 23 23 23 23 23 23 23 23 22 22 21 21 21 20 20 20 20 19 19 19 20 20 20 20 19 19 19 18 18 18 18 17 17 16 16 15 14 14 15 15 15 14 15 15 15 15 16 16 17 17 18 18 19 19 19 19 20 20 20 19 19 18 18 18 18 18 18 18 18 18 17 18 18 18 18 18 18
21 21 21 22 22 20 20 21 22 23 23 23 22 22 23 23 22 22 22 22 21 20 20 21 21 20 20 20 20 20 20 20 20 20 19 19 19 19 19 18 18 18 17 16 16 15 14 14 14 14 14 14 14 15 15 15 15 16 16 17 18 18 18 18 18 19 20 19 19 19 19 19 18 18 18 18 18 18 18 18 18 18 18 18 18 17 17
21 21 21 21 21 20 20 22 22 22 23 22 22 22 22 22 22 22 22 22 21 20 20 21 21 20 20 21 20 20 19 19 20 20 19 19 19 19 19 19 18 17 17 16 16 16 15 14 14 14 14 14 14 14 14 14 15 15 15 16 17 17 17 16 16 17 18 18 18 18 18 18 18 18 17 17 17 17 18 18 18 18 18 18 18 17 16
22 22 21 22 22 22 22 22 22 22 23 22 21 21 22 22 22 22 22 22 22 21 21 21 20 20 20 21 20 20 18 18 19 19 19 19 19 18 18 18 18 17 17 16 16 15 15 15 15 14 14 14 14 14 14 14 14 14 14 15 16 16 17 16 16 17 17 17 18 18 18 18 18 18 18 17 16 17 17 17 17 17 17 17 17 17 16
22 22 22 23 23 23 23 23 22 22 22 22 21 21 21 21 22 22 21 21 22 22 22 21 20 19 19 19 19 20 19 18 18 18 18 18 18 17 17 17 17 17 16 16 16 15 15 15 15 15 15 14 14 14 14 13 14 14 14 14 14 15 15 16 16 16 16 16 17 17 17 17 17 18 18 18 17 16 16 16 16 17 16 16 16 16 16
22 22 23 23 23 23 23 23 22 22 22 22 21 21 21 21 21 21 21 21 21 21 22 22 21 19 18 18 18 18 19 19 18 18 18 18 18 17 17 17 16 16 16 16 15 15 15 15 15 15 15 15 14 14 14 14 13 13 13 14 13 14 14 14 15 15 16 16 16 16 16 16 17 17 18 18 18 18 17 16 16 16 16 16 16 16 16
23 23 23 22 22 23 23 22 21 21 22 22 22 22 21 21 21 21 21 21 21 21 21 21 21 20 20 19 19 19 18 18 17 17 18 18 18 18 18 17 17 16 16 16 15 15 15 15 15 15 15 15 15 15 14 14 13 13 13 14 14 13 13 14 14 14 14 14 15 15 15 15 16 17 17 18 18 19 18 18 17 17 16 16 16 16 16
22 22 22 22 22 22 22 21 21 22 22 22 22 22 22 22 21 22 22 21 21 20 20 20 20 20 20 20 20 20 19 17 16 17 17 18 18 18 18 18 17 16 16 16 16 15 15 15 15 15 15 15 15 15 14 14 14 14 14 14 14 14 13 13 13 13 13 13 14 14 14 14 15 16 17 17 18 18 18 18 18 18 17 16 16 16 15
22 22 22 22 22 22 21 21 21 21 21 22 21 22 22 22 21 22 22 22 21 21 20 20 19 19 20 19 19 20 19 18 17 16 16 17 18 18 18 18 17 17 16 16 16 16 15 15 15 15 15 14 14 15 14 14 14 14 14 14 14 14 13 13 13 13 13 13 13 14 14 14 15 16 17 17 17 18 18 18 17 17 18 17 16 16 15
22 22 21 21 21 21 21 21 21 21 21 21 22 22 22 21 21 21 21 21 21 21 21 20 20 19 19 19 19 19 19 18 17 17 16 16 17 18 18 18 17 17 17 16 16 16 16 15 15 16 15 14 14 14 14 14 14 14 14 14 14 13 13 13 13 13 13 14 14 14 15 15 15 16 16 16 17 17 17 17 17 17 18 18 17 15 14
22 21 21 21 21 21 21 21 21 21 21 21 21 21 21 21 20 20 20 21 21 21 21 20 20 20 20 19 19 19 18 18 18 17 16 16 16 16 17 17 17 17 17 17 17 16 16 15 15 16 15 15 15 14 14 15 15 15 14 14 14 13 13 13 13 13 13 14 14 14 15 15 15 15 16 16 16 16 17 17 17 17 17 17 15 14 13
21 21 21 20 20 20 20 20 20 20 20 21 20 20 21 21 20 20 20 20 20 20 20 20 20 20 19 19 19 19 18 18 18 17 17 17 16 15 15 15 16 17 17 16 16 16 16 15 15 16 16 15 15 15 15 15 15 15 15 15 14 13 13 13 13 13 13 14 14 14 14 14 15 15 16 16 16 16 16 16 16 16 16 15 14 13 13
21 21 20 20 20 20 20 20 20 20 20 20 20 20 20 20 20 20 20 20 20 20 20 19 19 19 19 19 19 19 18 18 18 18 17 17 17 16 15 15 15 15 16 16 16 16 16 15 15 16 16 16 15 15 16 15 15 15 15 15 15 14 14 13 13 13 14 14 14 14 14 14 14 15 15 15 15 15 15 15 15 15 15 14 13 12 12
21 21 21 21 21 20 20 20 20 20 20 20 20 20 20 20 20 20 19 19 19 19 19 19 19 18 18 18 18 18 18 18 18 18 18 18 17 17 16 15 15 15 15 15 15 15 15 15 16 16 16 16 15 16 16 15 15 14 14 15 15 15 14 14 14 14 14 15 14 13 13 14 14 14 13 13 14 14 14 14 14 15 15 14 13 12 12
21 21 22 21 21 20 20 20 20 20 19 19 19 20 19 19 19 19 18 18 18 18 18 18 18 18 18 18 18 18 18 18 18 18 18 18 18 17 16 16 15 15 14 14 14 15 15 15 15 15 15 15 15 15 15 15 14 14 14 14 14 14 14 14 14 14 15 14 14 13 13 13 13 12 12 12 13 13 13 14 14 14 14 14 13 13 12
21 21 21 20 20 20 20 19 19 19 19 19 19 19 19 18 18 18 18 18 18 18 18 18 18 18 18 18 18 18 18 18 18 18 17 17 17 17 16 15 15 15 14 13 14 14 14 14 14 14 15 14 14 14 15 15 14 14 14 14 13 13 14 14 14 14 14 13 13 14 13 13 12 12 12 12 12 13 13 13 13 13 13 13 13 12 12
21 20 20 20 19 19 19 19 18 18 18 18 18 18 18 18 18 18 18 17 18 17 17 17 17 17 17 17 17 17 17 17 17 17 17 17 17 17 16 15 14 14 14 13 14 14 14 14 14 14 14 14 13 14 14 15 14 14 13 13 12 13 14 14 14 14 13 13 13 13 13 12 12 13 12 12 13 13 13 13 12 12 11 11 11 11 12
20 20 19 19 19 18 18 18 18 18 18 18 18 18 18 17 17 17 17 17 17 17 17 17 17 17 16 16 16 16 16 16 16 16 16 17 17 16 15 15 14 14 14 14 14 14 14 13 13 13 13 13 13 12 13 14 14 13 12 12 12 13 14 14 14 14 14 13 13 12 13 13 13 13 13 13 13 13 12 11 11 10 10 10 11 11 11
20 19 19 19 19 18 18 18 18 18 18 17 17 17 17 17 17 17 17 17 17 16 16 16 16 16 16 16 16 16 16 16 16 16 16 16 16 16 15 15 14 14 14 13 13 13 14 13 13 12 12 12 11 11 12 13 12 12 11 11 12 13 13 14 14 15 14 13 13 12 12 12 12 12 13 13 12 12 11 10 10 10 10 10 10 10 11
19 19 19 19 18 18 18 17 17 17 17 17 16 16 16 16 16 16 16 16 16 16 16 15 16 16 16 16 15 15 15 14 14 14 14 14 14 14 14 13 13 13 13 12 12 12 13 13 12 12 12 12 11 11 11 11 11 11 11 11 12 13 13 13 13 13 13 13 12 12 11 12 12 12 12 11 11 11 11 10 10 10 10 10 10 10 9
19 19 19 18 18 17 17 17 16 16 16 16 16 15 15 15 15 15 15 15 15 15 15 15 15 15 15 14 14 14 14 13 13 13 12 12 11 11 12 12 12 12 13 12 11 11 11 11 11 12 12 12 11 11 11 11 11 10 10 11 12 13 13 13 13 13 13 12 12 12 12 12 12 11 11 11 11 10 10 10 10 10 10 9 9 9 8
18 18 17 17 17 16 16 16 16 15 15 15 15 15 15 15 15 15 15 14 14 14 14 14 14 14 13 13 13 13 13 13 12 11 11 11 11 11 11 11 11 11 12 12 11 10 10 10 11 11 11 11 11 11 11 11 11 10 11 12 13 13 13 13 12 12 12 11 11 11 11 11 11 11 11 10 10 10 10 10 10 9 9 9 8 8 8
17 17 17 16 16 16 16 15 15 15 15 14 14 14 14 14 14 14 14 14 14 14 14 14 14 13 13 13 13 13 12 12 11 11 10 10 10 10 11 11 11 11 11 11 10 10 10 11 11 11 11 11 11 11 11 11 10 11 12 12 12 12 12 12 11 11 11 11 11 10 10 10 10 10 10 10 10 10 10 10 9 9 8 8 8 8 7
17 16 16 16 16 15 15 15 15 14 14 14 14 14 14 14 14 14 14 14 13 13 13 13 13 13 13 12 12 12 11 11 11 11 10 10 9 9 10 10 10 10 10 10 10 10 10 10 10 11 11 10 10 10 10 10 10 11 12 12 11 11 11 10 10 10 10 10 10 10 10 9 9 9 9 9 9 9 9 9 8 8 8 7 7 7 7
16 16 15 15 14 14 14 14 14 14 14 13 13 13 13 13 14 13 13 13 13 13 13 12 12 12 12 12 11 10 10 10 10 10 11 10 10 9 8 9 9 9 9 9 9 9 9 9 9 10 10 10 10 9 9 10 11 11 11 11 11 10 10 10 10 9 10 10 10 10 9 9 9 9 9 9 8 8 8 8 8 7 7 7 7 7 6
16 15 15 14 14 14 14 14 14 13 13 13 14 14 14 13 13 13 13 13 13 13 12 12 11 11 11 11 11 10 10 9 9 9 9 10 9 8 8 8 9 9 8 8 8 8 8 8 9 9 9 9 9 9 9 10 11 11 10 10 10 10 10 9 9 9 9 9 9 9 9 9 9 9 8 8 7 7 7 7 6 6 6 7 6 6 6
16 15 15 15 14 14 14 13 13 13 14 14 14 14 14 13 13 13 13 13 12 12 12 11 11 11 11 10 10 10 10 9 9 9 8 8 8 7 8 8 8 8 8 8 8 8 8 8 8 8 8 8 8 8 8 9 10 10 10 10 10 10 10 9 9 9 9 9 9 8 8 8 8 8 8 7 6 6 6 6 6 6 6 6 6 6 5
15 15 15 15 14 14 14 14 14 14 14 14 14 14 14 13 13 13 13 12 12 12 11 11 11 10 10 10 10 10 10 10 9 9 8 8 7 7 7 7 8 8 7 7 7 7 7 8 7 7 7 7 8 8 8 9 10 10 10 10 10 10 10 9 9 8 8 8 8 7 7 7 7 7 6 6 6 6 6 6 5 6 6 6 6 5 5
15 15 15 15 15 14 14 14 14 14 14 14 13 13 13 13 13 12 12 12 12 12 11 11 10 10 10 10 9 9 10 9 9 9 8 8 7 7 7 7 7 7 7 6 7 7 7 7 7 7 7 7 7 8 8 9 10 10 9 9 9 9 9 8 8 8 8 8 7 7 7 7 6 6 6 6 6 6 6 6 5 5 5 5 5 5 5
15 15 15 15 15 14 14 14 14 14 14 13 13 13 13 13 13 13 12 12 12 12 11 11 10 10 10 10 9 9 9 9 9 8 8 8 7 7 6 6 6 6 6 6 6 6 6 7 7 7 7 7 8 8 8 9 10 9 9 8 8 8 8 8 7 7 7 7 7 7 7 7 6 6 6 6 6 6 6 6 5 5 5 5 5 5 5
15 15 15 15 15 14 14 14 14 13 13 13 13 13 13 13 13 13 12 12 12 12 12 11 11 10 10 10 10 9 9 9 9 8 8 8 8 7 7 7 6 7 7 7 6 6 6 6 7 7 7 7 8 8 9 9 9 8 8 8 8 8 7 7 7 7 7 6 6 6 6 6 6 6 6 6 6 6 6 5 5 5 5 5 5 5 5
15 15 15 15 14 14 14 14 14 13 13 13 13 13 13 13 13 13 12 12 12 12 12 11 11 10 10 10 10 10 9 9 9 9 8 8 8 8 8 7 7 7 7 7 7 7 7 7 7 7 7 8 8 9 9 8 8 8 8 8 8 7 7 7 7 7 6 6 6 6 6 6 6 6 6 6 6 6 6 6 5 5 5 5 5 5 4
Height
770 767 766 765 768 768 762 761 761 760 758 757 760 761 753 754 771 776 765 768 783 781 770 769 769 766 769 777 781 781 782 783 782 781 781 781 780 781 780 780 780 780 781 781 783 785 786 788 791 793 795 798 799 801 803 804 806 806 806 807 808 810 811 812 813 815 817 818 818 819 821 821 823 824 825 826 827 828 830 831 833 834 835 837 839 839 840
771 766 764 762 766 770 766 763 762 761 761 760 760 760 756 758 765 762 757 768 780 776 770 768 765 764 767 769 773 776 778 782 786 787 788 787 784 784 784 783 782 782 782 782 784 787 788 790 793 796 799 801 802 802 802 802 803 803 804 805 807 809 810 812 813 815 816 817 817 818 819 821 822 824 825 826 826 827 829 830 831 832 833 835 837 838 839
778 768 765 763 765 771 772 770 768 764 763 763 762 765 766 768 771 765 761 773 786 780 770 767 766 765 766 770 773 775 776 781 787 792 795 792 788 787 788 788 786 783 783 784 786 789 791 792 793 795 799 801 802 803 803 803 803 803 805 806 807 809 810 812 813 814 815 816 816 817 818 820 822 823 824 825 826 826 827 828 830 832 833 835 837 838 839
786 771 767 767 765 769 776 776 774 772 770 766 765 773 781 783 784 779 774 781 792 786 773 770 770 768 772 778 779 780 781 782 786 792 796 795 791 788 789 790 790 788 786 786 788 790 792 793 794 796 798 799 801 802 803 803 803 805 806 806 808 810 811 812 813 814 815 816 816 817 818 820 822 824 825 826 826 827 827 827 829 831 832 834 836 838 838
791 774 768 769 771 784 791 783 776 777 776 769 768 776 785 789 789 791 792 792 789 783 779 778 776 778 785 789 787 787 787 785 785 789 791 791 789 788 789 791 791 792 791 791 792 794 795 796 797 798 798 799 800 801 802 803 803 805 806 806 808 810 811 813 813 814 815 816 817 818 819 820 822 823 825 826 827 827 827 827 828 829 830 831 833 835 836
795 779 770 774 788 804 803 783 772 775 778 777 778 782 786 789 791 793 796 794 787 784 786 786 784 787 791 791 790 788 787 788 788 788 788 789 788 788 790 791 792 793 794 794 796 797 798 800 800 801 801 801 800 800 801 802 803 805 805 806 807 809 811 812 813 814 815 815 817 819 821 821 821 821 823 825 826 827 827 827 827 828 829 830 831 832 833
789 779 779 796 811 808 792 775 768 770 773 775 779 785 787 788 790 790 791 793 790 788 789 787 787 791 790 790 791 789 787 788 786 786 788 789 789 790 792 792 793 795 795 797 800 801 802 802 803 805 805 804 802 801 801 802 803 803 804 805 807 808 809 810 811 812 812 813 815 817 819 820 821 821 823 824 824 825 825 826 827 827 828 829 830 831 831
794 791 793 806 807 791 778 774 772 771 774 775 780 791 795 791 790 791 791 791 789 788 790 791 792 793 791 792 796 795 792 789 786 788 791 791 791 792 793 794 795 796 797 799 802 804 805 805 805 806 806 804 803 801 802 803 803 803 804 806 807 808 808 808 809 810 811 812 813 814 816 818 820 821 822 822 822 822 822 823 825 826 827 828 829 829 829
799 805 801 793 789 788 787 785 780 777 779 781 783 796 803 794 787 788 791 791 790 789 791 793 795 797 799 802 804 802 797 794 791 791 792 792 793 794 794 796 796 797 798 800 801 804 804 804 805 805 804 804 803 803 804 805 805 805 805 806 807 808 808 809 809 810 810 811 811 812 814 816 818 818 818 819 819 820 821 822 823 824 825 826 826 827 827
792 805 811 800 798 808 807 796 785 777 776 776 776 790 804 797 785 785 790 791 791 791 792 794 796 800 809 815 814 807 802 799 796 795 795 796 797 797 797 799 799 799 799 800 801 804 804 804 805 805 805 805 805 806 807 807 808 808 807 807 808 809 809 810 810 811 811 811 810 812 813 815 817 816 816 816 817 818 820 821 821 822 823 823 824 825 826
789 801 815 815 815 817 809 796 786 777 775 774 775 792 808 801 789 786 787 790 794 793 791 793 795 803 814 821 818 812 808 804 801 800 800 799 800 801 801 801 802 802 802 801 802 804 805 806 806 807 808 808 808 808 809 810 811 811 810 810 810 811 811 811 812 813 813 813 812 813 814 815 816 815 815 815 816 817 819 819 820 820 821 821 823 824 825
788 793 805 815 820 816 803 793 787 780 776 776 788 810 817 803 793 791 789 794 800 799 795 795 800 807 814 815 814 811 810 809 807 805 805 805 805 805 805 804 804 805 805 805 805 806 808 809 809 810 811 811 811 812 812 813 813 814 815 814 813 813 814 814 814 815 815 815 814 815 815 816 816 816 815 815 816 817 817 818 819 819 820 820 821 822 823
786 788 800 814 817 808 797 791 787 781 780 787 806 822 815 799 795 794 792 797 802 802 802 805 808 811 811 810 810 810 809 810 810 810 810 810 809 809 809 809 808 808 809 809 809 811 813 813 813 813 814 814 815 815 815 815 816 817 818 818 817 817 817 816 816 817 816 816 816 816 816 817 817 817 816 816 816 817 817 818 818 819 819 820 821 822 822
787 784 794 812 816 803 793 791 786 783 792 807 816 812 800 795 795 794 796 800 801 801 806 809 810 812 812 812 813 812 812 812 812 812 812 812 813 813 812 812 812 812 813 812 812 814 816 817 818 818 818 818 819 820 820 819 819 820 820 820 821 820 820 819 818 818 818 818 817 817 817 817 817 817 817 817 817 817 817 818 819 819 820 821 822 824 824
796 798 804 820 825 807 791 791 792 793 802 811 808 799 795 795 795 795 800 802 800 801 806 808 810 811 812 813 815 814 814 814 814 815 816 815 816 815 815 815 815 815 816 816 816 817 819 820 821 821 820 821 822 823 824 823 823 823 823 823 823 822 822 821 819 819 821 820 819 818 818 818 818 818 818 818 818 818 818 819 819 820 821 822 823 824 825
804 816 818 818 814 801 791 795 801 800 799 798 796 796 797 796 794 798 803 804 802 802 805 807 809 811 811 813 814 815 815 815 816 818 817 817 818 818 817 818 817 817 818 818 818 819 820 821 823 822 822 822 823 824 825 825 825 826 825 825 825 824 825 823 821 822 823 822 820 819 819 819 819 819 820 819 819 819 820 820 821 821 822 823 823 824 825
797 806 807 801 797 795 794 796 798 797 795 793 793 796 797 796 796 798 802 804 804 802 802 805 807 809 811 811 812 813 815 815 816 818 818 818 819 819 819 820 819 819 820 821 821 821 821 822 824 824 824 824 825 826 827 827 827 827 827 827 826 826 825 824 823 823 823 822 821 821 821 821 821 821 822 821 820 821 821 821 821 822 822 823 824 825 825
795 796 796 794 794 796 795 795 797 796 795 794 794 796 798 798 797 798 800 803 803 802 803 805 807 809 811 811 811 812 813 815 817 817 818 818 819 819 820 821 821 821 821 823 823 822 822 823 824 824 824 825 826 827 828 829 829 828 829 829 828 826 825 824 824 824 823 822 821 822 823 823 822 822 822 822 822 822 822 822 822 823 823 823 824 825 826
803 806 801 795 795 797 796 797 799 798 797 797 797 798 800 799 798 799 801 802 802 802 804 805 808 810 810 811 813 813 813 815 817 817 818 819 819 819 820 820 821 822 822 824 825 824 824 824 825 825 825 825 827 829 830 830 831 831 831 831 829 827 826 826 825 825 824 823 823 823 823 823 823 822 822 823 823 823 823 824 823 823 823 823 824 825 826
804 808 803 797 796 797 797 799 801 801 801 801 799 798 800 800 800 801 802 802 803 804 804 806 808 810 810 812 814 813 813 815 816 818 820 820 819 820 821 821 822 822 822 824 825 825 825 825 826 826 826 826 828 829 830 830 832 833 833 832 831 829 828 827 827 826 826 825 824 824 824 824 825 825 825 824 825 825 825 826 825 825 825 824 825 826 827
806 808 805 801 801 803 802 801 802 802 803 803 802 801 801 801 802 802 802 804 805 805 806 808 808 809 811 812 813 813 814 814 816 818 820 820 820 821 821 822 822 822 822 823 824 824 825 825 826 826 827 828 829 829 830 830 831 833 834 834 833 832 829 829 829 828 828 827 826 825 825 826 827 829 829 827 827 827 827 827 827 827 827 826 827 828 828
812 811 808 806 808 811 810 805 804 804 803 804 805 804 803 803 804 804 804 805 807 807 808 808 808 810 812 812 814 815 815 815 817 818 820 820 821 822 822 822 823 822 822 823 823 824 825 826 826 827 828 829 830 830 830 829 829 831 832 833 833 833 831 830 829 828 829 829 828 827 826 827 828 829 830 829 828 828 828 828 828 828 828 828 829 830 830
809 808 806 805 806 810 808 804 804 804 803 804 806 806 805 805 805 805 805 806 808 810 809 808 809 811 811 812 814 815 816 817 818 819 820 821 822 822 823 823 824 824 824 824 824 825 826 826 827 828 828 829 830 830 830 829 828 829 830 832 834 833 832 831 830 829 830 831 830 829 828 828 829 829 829 830 830 829 829 829 829 829 829 829 830 831 832
800 801 802 801 802 804 804 802 803 804 803 804 806 806 806 806 805 806 807 807 808 808 808 808 810 811 811 812 813 815 817 819 819 819 821 822 822 823 824 824 825 826 826 826 827 827 827 827 827 827 828 829 830 830 830 830 829 829 830 833 835 835 834 833 832 831 831 832 832 831 830 830 830 830 830 830 830 830 831 831 831 831 831 832 832 833 834
798 798 797 798 799 800 800 800 801 803 804 804 805 807 807 808 808 807 808 808 808 808 807 808 810 811 811 812 813 814 816 819 819 820 821 822 822 823 824 825 826 826 827 828 828 829 829 829 828 828 828 828 829 830 831 831 831 832 833 835 836 836 836 835 834 833 833 833 833 833 832 832 831 831 831 831 831 831 832 832 832 833 833 833 834 834 835
795 795 795 798 799 798 798 800 802 804 804 804 805 807 808 809 809 809 808 809 810 809 808 809 810 811 813 814 814 815 816 817 818 820 820 821 822 823 823 824 825 825 826 827 828 829 829 829 830 829 829 829 829 829 830 832 833 834 835 836 836 837 836 836 835 834 833 833 833 833 833 833 832 832 832 832 832 831 832 832 833 833 833 834 835 835 835
794 795 796 800 800 798 799 802 803 804 805 804 805 806 806 808 809 808 808 809 810 810 810 810 810 811 812 813 814 815 816 817 818 818 818 819 820 820 821 823 823 824 824 825 826 828 829 829 830 830 830 830 830 830 831 832 833 834 835 836 836 836 836 836 836 835 834 833 833 833 833 833 833 833 833 833 832 832 832 832 832 833 833 834 834 835 835
795 795 797 800 801 800 801 802 803 803 804 805 805 805 805 806 806 806 806 808 810 810 811 811 812 812 812 812 813 813 815 816 817 817 816 816 817 817 819 820 821 822 823 823 824 826 827 828 829 829 829 830 831 831 831 832 833 834 834 835 835 836 836 836 835 834 834 834 833 833 834 834 834 833 833 833 833 832 832 832 832 833 833 834 834 835 835
795 796 797 799 800 801 802 803 804 804 804 804 805 805 805 805 806 805 805 805 808 810 810 811 812 813 812 813 813 813 814 815 816 817 816 815 815 815 816 817 819 820 821 822 823 824 826 827 828 828 829 829 830 831 831 832 832 833 833 833 834 834 834 834 834 834 834 834 834 834 834 834 834 834 833 833 834 833 833 833 834 834 834 834 835 835 836
795 796 798 799 800 801 803 804 804 804 804 804 804 804 804 805 807 807 806 806 808 809 809 810 812 812 812 813 813 813 814 814 814 815 816 816 816 815 815 816 817 819 820 820 821 822 824 825 826 826 827 827 828 829 830 831 832 832 832 833 833 833 833 833 833 833 834 834 834 834 834 834 834 834 834 834 834 834 834 834 834 834 834 835 835 836 837
796 797 799 800 801 801 803 803 804 804 804 804 805 805 805 806 807 808 808 808 808 809 809 810 811 811 812 812 813 813 813 813 813 813 814 815 816 817 816 816 816 817 818 819 819 821 822 824 825 825 825 825 826 827 829 830 831 831 832 832 832 832 832 832 832 833 833 833 833 834 834 834 834 834 834 834 834 834 835 834 834 834 835 835 836 837 838
796 798 800 802 802 802 803 803 804 804 804 804 806 806 806 806 807 807 807 808 808 809 810 810 811 811 811 812 812 812 812 812 812 812 812 812 814 816 817 817 816 816 817 818 819 820 821 822 823 824 824 825 825 826 827 829 830 830 831 831 831 831 832 832 832 832 832 833 833 833 834 834 834 834 834 834 834 835 835 835 835 835 836 836 837 837 838
797 799 800 801 801 802 803 803 803 804 804 804 805 806 806 807 807 807 808 808 809 809 810 811 811 812 812 812 812 812 812 811 811 811 811 811 811 812 813 814 815 816 817 817 818 820 820 821 822 823 823 824 824 825 826 828 829 829 830 830 830 831 831 831 832 832 832 833 833 833 834 834 834 834 834 834 834 835 835 835 835 836 836 836 837 837 838
795 796 797 797 799 801 802 802 803 803 804 804 805 805 806 807 808 808 809 810 810 810 811 811 811 811 811 811 811 811 810 810 809 809 809 809 809 809 810 812 813 814 815 816 816 817 818 819 820 821 822 823 823 824 825 826 827 828 829 829 830 830 830 831 831 832 832 833 833 834 834 835 835 835 835 835 834 835 835 835 836 836 837 837 837 837 837
794 794 795 796 798 799 800 801 802 803 803 804 805 805 806 807 808 809 810 810 810 811 811 811 811 811 810 810 810 809 809 808 808 808 807 807 807 808 808 809 810 811 813 813 814 815 816 817 818 819 820 821 822 823 824 825 826 828 828 829 829 829 830 830 831 831 832 833 833 834 834 834 834 835 835 835 835 835 835 836 836 836 837 837 837 837 837
793 794 796 797 799 800 801 802 802 803 804 805 805 805 806 807 808 809 809 809 809 810 810 809 809 809 809 809 809 808 808 808 807 807 806 806 806 806 807 808 808 809 810 811 812 813 814 816 818 819 819 819 820 821 822 823 825 826 827 828 829 829 829 830 830 831 832 833 833 834 834 834 834 835 835 835 836 836 836 836 836 836 837 837 837 837 838
793 795 796 798 799 800 802 802 803 804 804 805 805 806 806 807 807 807 808 808 808 808 808 808 809 808 808 808 808 807 807 807 806 806 805 805 805 805 806 806 807 807 806 807 809 810 811 812 815 817 818 818 818 820 821 822 823 825 826 828 829 829 829 829 830 831 832 833 833 834 834 834 834 834 835 835 835 836 836 836 837 837 838 838 838 839 839
793 794 797 798 799 800 801 802 803 804 804 804 805 805 806 806 806 807 807 807 807 808 808 808 808 807 807 807 807 806 806 806 805 805 804 804 804 804 803 804 805 805 804 804 805 806 808 811 813 815 817 817 817 818 821 822 822 824 826 828 828 828 828 828 829 829 830 832 833 834 834 834 834 834 834 835 835 835 836 837 837 838 839 839 839 840 839
792 794 796 797 798 799 800 801 802 803 804 804 805 805 805 806 806 806 806 806 806 806 807 806 806 806 805 805 805 805 805 804 804 804 804 803 803 802 802 802 803 803 804 805 805 804 805 808 812 814 816 816 817 818 821 823 823 824 826 827 828 828 828 828 828 828 829 831 832 833 834 834 835 834 834 835 835 836 837 837 838 838 839 839 840 840 840
792 794 795 796 797 799 800 801 802 803 804 805 805 805 805 805 805 805 805 805 805 806 806 806 805 805 804 804 804 804 804 804 804 803 803 803 803 803 803 802 802 802 803 806 807 805 803 804 807 810 813 815 817 819 821 822 822 824 825 827 827 827 827 828 828 829 829 831 832 833 833 834 834 834 835 835 836 836 837 837 838 838 839 839 840 840 841
792 793 795 796 798 799 800 802 803 803 804 805 805 805 805 805 805 805 805 805 805 806 805 805 805 804 804 804 804 803 803 803 803 803 803 803 804 805 806 804 803 802 803 805 807 807 805 804 806 808 811 814 817 819 820 821 821 823 824 826 826 826 827 827 828 829 829 830 831 832 832 833 833 834 834 835 836 836 837 837 838 839 839 840 841 841 842
792 794 796 797 799 800 801 802 803 804 804 805 805 805 805 805 805 805 805 805 805 805 804 804 804 804 804 803 803 802 802 803 802 802 802 802 803 805 806 805 803 803 803 803 805 806 807 807 809 810 812 814 816 818 819 820 821 822 823 824 825 826 826 827 828 829 829 830 831 831 832 833 833 834 834 835 836 836 836 837 838 839 840 841 841 842 842
793 795 796 798 799 800 801 802 802 803 804 804 804 805 805 805 805 805 805 804 804 804 803 803 803 803 803 802 802 801 801 801 801 801 801 801 802 803 804 803 803 803 804 804 805 806 808 810 810 811 813 814 816 817 819 820 821 822 822 823 825 827 827 827 828 829 830 830 831 832 832 833 833 834 834 835 835 835 836 837 838 839 840 841 841 841 842
794 795 796 798 799 800 801 802 802 803 804 804 804 804 805 804 804 804 804 804 804 803 803 803 803 802 802 802 801 801 801 800 800 800 800 801 802 803 803 803 803 804 805 806 807 808 810 811 811 811 813 814 816 818 819 820 821 822 822 823 826 828 828 828 829 829 830 830 831 831 832 832 833 834 834 834 835 836 836 837 838 839 840 841 841 841 841
794 795 797 798 800 800 801 801 802 803 803 804 804 804 803 803 803 803 803 803 803 803 802 803 802 802 801 801 801 801 801 801 800 800 800 801 803 804 804 804 804 804 806 807 807 808 810 811 812 812 813 814 816 818 820 821 822 823 823 825 827 828 828 828 829 830 830 830 831 831 832 832 833 834 834 835 836 837 837 838 839 840 840 841 841 841 841
794 796 797 799 799 800 800 801 802 803 803 803 802 802 802 802 802 803 803 803 803 802 802 802 802 802 802 802 802 802 802 802 802 802 802 802 803 805 805 805 805 805 806 807 808 810 812 813 813 814 814 814 816 818 820 821 822 823 825 826 827 828 828 829 829 830 830 831 831 831 832 832 833 834 835 836 837 838 838 839 840 840 841 841 841 841 842
793 795 797 798 798 799 800 800 801 801 801 801 801 801 801 802 802 802 802 803 803 802 802 802 802 802 802 802 802 802 803 803 804 804 804 804 805 806 806 807 807 807 808 809 811 812 814 814 814 815 816 816 817 819 820 820 821 823 824 825 826 827 828 829 829 830 830 831 831 832 833 833 834 835 836 837 838 839 839 840 840 840 840 841 841 842 842
793 794 795 797 798 798 799 799 799 799 799 800 800 800 800 801 802 802 802 802 802 802 802 802 802 802 802 802 803 803 803 803 804 805 806 806 807 807 808 808 808 809 809 810 812 813 815 815 815 816 817 817 818 819 820 820 821 822 824 825 826 827 827 828 830 830 830 831 832 833 834 834 835 836 837 838 838 839 839 840 840 840 840 841 841 841 842
794 794 795 796 796 797 798 798 798 798 798 799 800 800 801 801 802 802 802 802 802 802 803 803 803 803 803 803 803 803 804 804 805 806 806 807 808 808 809 809 809 809 810 811 812 813 814 814 815 816 817 818 819 820 820 820 821 822 824 826 827 827 828 829 830 830 830 831 833 833 834 834 835 836 837 838 838 838 838 839 840 840 840 840 841 841 841
793 793 794 794 795 796 797 797 797 797 798 799 800 800 801 801 801 801 802 802 802 802 803 803 804 804 804 804 804 804 805 805 806 806 807 808 809 809 810 810 810 811 812 813 813 814 814 815 816 817 818 818 819 820 820 820 821 823 825 826 827 828 829 829 830 830 831 832 833 833 834 834 835 836 836 837 837 837 838 838 839 839 839 839 840 840 840
791 792 793 793 794 796 796 796 797 798 798 798 799 799 800 800 800 801 801 802 802 802 802 803 804 805 805 805 805 805 805 806 807 807 808 809 809 810 811 811 812 812 813 814 814 815 816 816 817 818 819 819 820 820 820 821 823 824 826 827 828 829 829 830 830 831 832 832 833 833 833 834 834 835 835 836 836 836 837 837 838 838 838 838 838 839 839
790 791 792 793 794 795 795 795 796 798 798 798 798 798 798 799 800 800 801 802 802 802 802 803 804 805 805 805 805 805 806 807 807 808 808 809 810 811 811 812 812 813 814 815 815 816 816 817 818 819 819 820 820 820 821 822 824 825 826 827 828 828 829 829 830 831 831 832 833 833 833 833 834 834 834 835 835 835 836 836 836 837 837 837 838 838 838
Wind_Speed
9 10 9 7 8 10 10 9 8 8 9 9 8 9 9 6 6 6 4 9 8 4 3 5 4 2 5 9 10 8 6 6 6 4 1 3 7 8 8 10 9 7 8 8 6 6 9 9 10 9 9 11 13 14 14 15 16 16 15 14 13 13 14 15 16 16 16 14 14 14 14 13 12 12 13 13 13 15 16 19 18 17 17 17 17 18 18
8 10 10 7 7 9 10 8 6 7 8 9 8 9 9 9 10 11 9 4 8 7 4 5 4 4 6 7 8 8 7 9 11 7 2 1 3 6 7 7 8 7 6 6 7 7 7 8 7 5 3 2 5 8 10 10 9 8 9 10 10 11 11 11 12 13 11 10 11 12 12 11 10 10 10 9 9 10 12 14 16 17 18 18 18 18 17
8 9 10 9 8 6 7 8 8 9 9 6 7 7 8 10 10 11 11 4 5 4 4 4 4 3 5 5 5 5 4 9 14 11 6 2 2 6 6 4 6 7 5 2 3 5 7 10 11 9 9 9 8 8 9 9 8 6 6 6 6 8 10 9 9 9 7 6 8 8 8 7 7 9 10 9 10 10 8 8 8 10 14 16 15 16 17
6 7 9 9 7 5 7 9 6 9 11 8 3 5 10 11 12 11 10 4 2 1 3 2 1 2 5 7 7 6 4 6 11 13 10 6 5 10 9 4 3 5 4 4 5 5 4 7 10 12 15 16 13 12 12 12 12 12 12 11 10 9 9 9 8 7 6 4 5 8 9 6 2 4 6 7 8 9 8 9 9 7 8 10 12 13 15
5 8 8 6 6 6 7 5 4 9 11 9 2 8 12 12 13 9 4 4 4 3 4 4 2 7 10 9 8 6 4 3 4 9 9 6 7 10 11 9 7 6 7 8 8 7 5 4 5 4 7 10 9 10 10 11 12 12 12 13 14 12 10 10 9 9 9 8 6 7 11 11 8 7 8 9 8 7 7 9 11 10 8 7 8 10 9
5 6 5 4 6 5 1 3 6 7 9 10 6 6 9 8 9 7 4 6 7 7 6 5 5 9 9 6 6 7 5 3 3 8 8 7 10 11 11 11 9 9 11 11 10 9 8 9 10 8 7 7 7 6 5 4 6 7 6 7 10 11 10 9 9 9 10 10 6 3 8 14 15 14 14 16 14 11 10 10 13 14 12 9 10 11 9
5 3 4 6 5 3 1 1 4 5 4 6 4 5 7 7 7 7 8 7 7 7 6 6 9 10 11 12 12 12 9 5 4 10 10 9 11 11 11 11 10 10 12 12 11 10 8 8 8 7 7 7 8 11 12 11 9 8 7 6 3 5 6 6 7 9 9 9 7 5 8 11 14 15 16 17 17 16 14 14 15 15 15 14 15 14 12
3 3 6 5 1 2 4 2 6 7 5 6 3 4 7 8 6 7 7 7 6 6 5 6 7 6 9 13 12 12 12 10 7 10 10 10 11 11 11 12 12 13 14 14 14 12 10 10 9 8 7 8 10 12 13 14 15 14 13 12 9 5 5 5 4 5 5 6 7 8 10 10 10 12 12 13 17 19 18 17 15 14 14 16 17 16 14
1 4 5 2 1 2 2 4 6 6 6 6 5 1 3 6 5 4 6 7 6 5 3 4 4 3 4 7 8 11 12 12 10 9 11 12 12 14 15 14 14 15 15 16 16 13 11 11 11 11 11 11 13 15 14 15 16 16 16 15 13 9 4 2 2 2 2 4 7 8 9 8 8 10 12 14 16 17 17 15 15 14 14 15 15 14 13
1 3 4 4 3 2 1 5 6 7 7 6 5 2 1 6 8 6 5 6 5 4 2 1 3 3 1 2 5 9 11 11 10 10 12 14 15 16 18 19 18 16 15 17 16 14 12 11 10 11 12 12 14 14 15 15 16 17 17 16 16 13 9 6 6 5 5 2 3 3 3 5 6 8 11 12 12 13 13 13 14 15 15 16 16 14 11
3 2 2 4 3 1 1 5 7 9 9 8 6 3 0 7 12 10 7 7 6 4 2 2 3 4 3 3 3 6 9 10 10 11 14 16 16 17 17 18 20 22 22 22 20 17 15 13 11 11 10 11 13 14 14 15 15 16 15 15 15 14 11 10 9 8 6 6 5 5 4 2 2 2 3 3 6 9 10 11 13 13 14 15 16 15 13
4 3 2 0 1 1 3 7 8 8 10 10 7 4 1 8 12 11 11 11 9 7 4 4 4 3 2 4 4 3 6 10 12 13 15 16 17 17 16 16 18 20 22 24 23 21 19 17 16 16 14 14 15 15 14 14 15 15 15 14 14 13 12 12 12 10 9 7 7 6 5 4 4 3 3 2 2 4 5 6 6 8 9 11 14 16 17
4 4 2 3 2 1 5 7 7 10 10 6 4 2 2 7 9 9 11 12 11 10 7 5 4 4 4 4 5 6 9 10 11 13 15 16 17 17 16 16 17 18 20 21 21 22 21 19 18 18 17 17 17 16 15 15 15 14 13 13 13 12 12 11 11 11 10 9 8 7 6 5 4 3 3 3 3 2 2 3 3 4 3 2 1 4 11
4 4 1 4 4 2 7 7 6 9 8 3 1 1 3 5 8 8 11 12 11 10 9 6 4 6 7 6 6 7 9 10 10 13 15 16 17 17 17 17 17 18 19 20 21 21 20 18 17 16 16 16 16 15 15 15 14 12 11 12 11 11 11 11 10 9 8 8 9 9 8 7 6 6 5 4 3 3 3 4 5 6 7 8 10 10 11
5 4 2 3 4 4 8 7 4 7 6 2 2 2 2 5 8 8 9 10 9 9 9 8 6 8 10 9 8 8 8 10 12 13 15 15 15 16 17 18 18 18 19 20 20 19 18 18 17 16 16 16 15 14 14 14 13 11 10 10 10 10 10 11 11 10 8 8 10 11 10 9 10 11 11 11 9 7 6 7 7 7 7 9 11 13 13
3 3 3 2 2 4 7 6 4 5 4 3 2 3 4 6 7 6 7 7 5 6 9 9 8 8 10 10 9 8 8 10 11 12 12 13 14 15 17 18 19 19 18 18 18 18 17 17 16 16 16 16 15 14 14 14 13 12 10 9 8 8 7 8 9 9 7 8 9 10 10 9 9 10 11 12 11 10 9 8 8 8 9 10 12 13 15
4 4 4 3 3 4 5 6 5 5 5 5 5 6 6 5 6 7 6 4 3 3 6 9 9 8 8 9 9 9 9 9 10 11 12 12 12 13 14 16 18 18 16 15 15 15 16 15 14 14 14 15 16 16 15 15 14 13 10 8 8 7 6 7 8 7 7 8 9 9 8 6 7 8 9 10 9 9 10 9 8 9 10 10 12 13 14
3 5 4 3 5 5 5 6 5 5 7 7 7 7 7 6 7 7 5 4 3 2 3 6 7 8 8 8 6 6 8 10 10 11 12 12 12 11 11 11 12 13 13 12 12 12 13 13 13 13 14 15 16 15 14 14 14 14 11 9 8 8 7 7 7 7 7 8 9 9 9 7 7 8 7 8 8 9 10 10 9 8 8 10 13 13 13
1 1 2 2 5 5 5 5 4 5 7 8 7 7 6 6 7 8 6 5 3 2 2 4 7 9 9 8 5 4 5 8 10 10 11 11 10 10 9 8 8 8 9 9 9 9 9 10 12 14 14 14 15 14 13 13 13 14 12 9 8 9 9 9 8 6 6 6 7 8 10 10 11 11 10 9 10 12 13 13 12 10 6 6 9 9 9
3 2 2 3 4 5 6 4 4 5 6 7 7 7 6 7 8 7 8 7 4 3 3 4 6 9 10 9 7 6 6 8 9 10 10 10 10 9 8 7 7 7 6 6 7 8 7 8 11 13 13 12 12 11 11 11 11 11 11 9 8 8 7 7 7 6 5 6 5 7 7 8 10 12 14 13 13 13 13 13 15 15 12 10 11 11 9
5 4 2 2 2 4 6 5 4 4 4 5 6 6 6 7 7 7 8 8 5 3 3 4 5 6 8 9 8 8 6 7 9 11 10 10 10 10 9 7 6 6 6 5 6 7 6 5 7 9 10 11 10 9 9 10 9 9 9 7 5 6 7 7 7 6 4 6 8 6 8 9 7 8 10 11 11 11 11 11 11 12 12 12 14 14 12
3 2 1 1 2 1 1 2 2 3 3 3 4 5 5 6 6 6 7 7 7 5 2 3 5 4 5 7 8 8 6 7 9 11 11 11 11 10 10 9 8 8 8 7 6 7 6 5 6 6 6 7 7 7 7 8 9 7 9 9 4 5 7 8 9 9 6 6 9 9 7 11 11 8 7 7 8 9 10 10 10 9 9 9 11 11 9
3 4 2 1 1 2 2 2 1 1 2 2 3 4 5 6 6 6 6 6 7 5 2 3 5 5 5 7 8 7 6 7 9 10 10 10 9 8 8 8 8 8 8 8 7 8 7 8 8 8 6 5 5 5 5 5 7 7 8 10 7 5 6 6 7 10 9 7 8 9 9 7 7 7 7 7 8 10 11 10 10 9 8 8 8 7 7
4 7 5 3 2 2 3 3 2 2 2 2 3 4 4 5 6 6 5 5 5 3 2 3 6 7 6 6 7 8 7 7 8 9 8 8 8 7 6 7 7 7 6 6 6 6 7 8 9 9 8 7 6 5 5 4 4 5 7 9 10 7 5 5 6 8 8 7 7 8 8 7 5 3 5 8 8 8 8 9 10 10 10 10 9 9 7
4 4 4 2 1 1 3 4 3 4 2 2 3 4 4 5 5 5 3 3 4 4 3 3 5 8 7 4 5 7 9 10 10 9 8 7 8 9 8 8 8 7 5 5 4 4 4 4 6 7 8 8 7 6 6 6 4 3 5 7 8 8 6 5 6 6 6 6 6 6 6 6 7 6 4 4 6 5 5 6 6 8 8 9 9 10 10
4 4 3 2 2 3 3 3 3 5 3 2 3 3 3 3 2 3 2 2 3 4 3 3 3 6 8 8 8 8 9 10 10 10 10 9 10 11 10 9 9 9 8 7 5 4 5 4 4 4 5 6 7 7 6 6 5 4 3 4 5 6 6 6 6 6 6 6 6 6 6 6 6 7 7 5 2 2 6 6 5 5 5 6 8 8 9
4 3 2 3 4 4 3 2 3 5 2 1 1 1 2 4 2 2 1 2 3 3 3 3 3 1 3 6 8 9 10 12 11 11 12 13 14 14 14 12 11 11 12 11 8 7 7 7 6 5 5 6 7 7 6 6 5 4 3 2 3 4 5 5 6 6 7 7 7 6 6 6 6 6 6 5 5 3 2 3 3 4 5 6 5 6 5
4 3 1 2 1 1 4 4 3 3 2 0 1 2 2 1 2 3 2 3 3 2 2 2 2 3 3 2 3 4 5 10 14 14 14 15 15 16 16 15 14 14 13 13 11 10 10 10 9 8 7 8 6 5 6 5 4 3 2 2 3 4 4 4 4 5 5 5 5 6 5 4 5 5 4 4 4 4 4 3 4 3 2 6 4 2 3
3 3 1 1 2 3 3 2 2 2 2 2 2 3 3 2 2 3 2 1 3 2 1 2 2 2 4 4 5 6 5 3 7 9 12 15 16 16 16 16 16 15 14 14 13 13 12 11 11 10 10 9 8 7 6 5 4 3 1 0 3 5 3 3 2 2 3 3 3 5 6 5 4 4 4 4 4 4 4 4 4 4 2 3 3 3 5
3 3 2 1 2 2 2 3 3 3 3 2 2 2 2 0 1 3 4 3 2 2 1 2 1 2 3 4 5 6 6 6 6 7 10 12 12 13 14 15 15 15 15 15 15 15 14 13 12 12 12 11 9 8 6 4 4 4 2 1 3 2 3 4 3 2 2 2 2 3 5 4 4 4 4 4 4 3 4 3 2 1 1 3 6 8 9
4 4 3 2 2 3 3 3 3 3 2 2 2 3 2 1 2 2 2 1 2 3 2 1 2 3 3 3 5 6 7 7 7 6 9 11 11 10 10 13 15 15 16 16 16 16 15 14 13 12 13 12 11 9 7 5 4 4 4 3 3 1 3 5 5 2 2 2 1 2 3 4 4 3 3 3 4 4 4 4 4 4 4 4 8 11 10
5 6 5 4 4 4 4 3 3 3 3 3 3 4 3 3 4 3 3 2 3 3 3 3 4 5 5 5 6 6 8 9 9 9 9 9 10 10 11 13 14 13 14 14 15 15 16 16 15 14 14 14 12 10 9 6 4 4 3 3 3 2 2 4 3 2 1 1 1 2 4 5 5 4 3 3 4 4 5 5 5 5 5 5 8 9 8
6 6 5 5 5 5 5 4 4 4 4 3 4 4 4 5 5 5 5 5 5 5 5 5 5 6 7 8 9 9 10 10 11 11 11 11 11 12 13 15 16 15 16 16 16 16 17 18 17 16 16 15 14 11 9 8 5 3 2 2 3 3 1 2 3 2 1 1 2 4 4 4 3 4 5 5 5 4 5 5 5 4 4 5 8 8 9
5 4 2 0 1 3 3 3 3 3 3 4 5 5 5 6 6 6 6 7 7 8 8 7 8 9 9 10 11 12 12 11 10 11 12 13 14 13 13 15 17 18 18 19 21 20 20 20 20 18 17 16 16 13 11 9 6 4 3 2 2 2 2 1 1 1 0 0 3 3 2 2 2 4 5 6 6 5 5 4 4 4 4 3 5 6 10
5 3 2 3 2 1 2 2 3 4 4 4 5 5 5 6 6 7 8 7 8 9 9 10 10 11 12 12 12 12 13 12 11 12 13 14 14 13 12 14 16 15 14 17 21 23 21 20 19 19 18 18 17 15 12 10 8 6 4 3 2 2 2 2 1 1 1 1 2 1 1 2 3 4 4 4 4 4 4 3 3 3 4 2 2 4 10
4 2 1 1 1 2 2 3 3 3 4 4 5 5 6 6 7 8 8 8 9 10 10 11 12 12 12 12 12 12 13 13 13 14 15 15 15 14 10 10 13 14 12 12 16 21 23 22 20 19 20 20 18 15 12 10 11 9 6 3 2 4 4 3 3 2 1 1 0 1 1 2 2 1 2 2 2 2 2 3 3 3 4 5 5 7 9
3 2 1 1 0 1 1 1 2 2 3 4 5 5 6 6 7 7 8 8 9 10 10 10 11 12 13 13 13 14 14 14 14 15 15 16 17 15 10 8 11 14 13 13 17 23 26 25 22 20 19 18 16 13 11 11 13 12 8 4 3 5 5 5 5 4 3 2 2 1 1 1 1 1 1 1 1 1 1 2 4 5 6 6 6 6 6
4 4 3 2 2 2 2 2 2 3 4 5 5 6 6 6 6 7 8 8 9 9 10 11 12 13 14 14 14 15 15 15 15 17 17 17 18 16 11 9 11 13 13 15 20 24 24 22 20 21 20 17 15 13 13 13 14 12 7 3 4 5 5 5 7 6 5 4 3 2 2 1 1 1 1 2 1 1 2 3 4 5 5 5 5 5 4
5 5 4 3 3 3 2 2 2 3 4 5 6 6 6 7 7 8 9 9 10 10 10 12 13 14 14 14 14 16 16 16 16 16 17 18 18 17 12 9 10 12 14 15 17 20 21 21 21 20 17 15 14 13 13 14 14 11 6 3 4 5 5 5 5 5 4 4 4 2 1 1 2 2 2 1 1 2 3 2 2 2 2 3 4 4 4
4 4 4 3 2 1 2 2 3 4 5 5 6 6 7 7 8 9 9 10 10 11 12 13 13 14 14 14 15 15 14 14 14 16 16 18 19 18 13 5 2 4 10 12 13 16 21 26 27 23 18 14 12 10 10 10 10 10 8 6 6 6 5 4 3 3 3 4 4 3 3 3 3 3 1 0 1 1 0 1 1 2 2 3 3 4 4
3 2 2 1 1 2 2 3 4 4 5 5 6 7 7 8 9 9 10 10 11 12 13 13 14 14 14 14 14 14 13 12 13 13 13 14 15 14 11 4 4 4 2 8 11 14 19 24 24 22 20 16 13 10 8 7 7 7 7 6 7 6 5 5 4 3 3 3 3 3 2 3 3 2 2 1 1 1 1 1 1 1 2 3 3 3 3
3 2 1 1 1 1 2 3 3 4 5 5 6 7 7 8 9 9 10 10 11 12 12 13 13 13 12 12 12 12 12 10 8 7 8 8 7 7 7 5 2 5 9 12 14 17 19 19 18 17 16 15 14 12 8 5 6 7 7 7 7 5 4 4 5 4 3 2 2 1 1 1 0 1 1 1 1 2 2 1 1 2 3 3 2 2 3
4 3 2 2 2 2 1 2 3 4 5 6 6 7 7 7 8 9 9 10 11 11 11 12 12 11 10 10 10 10 10 8 4 3 4 3 2 1 3 2 5 9 12 14 15 17 17 16 16 16 15 13 14 14 10 7 5 6 8 8 6 3 2 2 4 3 3 3 2 2 1 1 0 1 1 1 2 2 2 1 2 3 3 3 3 3 3
4 3 3 2 1 1 1 2 3 4 5 6 6 6 6 7 8 8 8 8 10 10 9 9 9 9 8 7 7 7 7 5 2 3 5 6 6 5 5 8 12 12 12 10 10 11 11 10 12 15 15 14 14 13 10 6 5 5 6 7 6 4 2 2 3 2 2 2 3 3 3 2 0 1 2 2 2 2 2 2 3 3 3 3 3 3 2
5 4 3 2 1 1 2 2 3 4 5 5 5 6 6 6 6 6 6 7 8 8 7 6 6 5 4 3 2 3 4 3 3 4 5 5 6 7 8 11 13 13 11 10 10 10 10 11 12 14 15 13 11 9 7 6 5 4 4 5 5 4 3 3 2 2 2 2 2 2 2 1 1 2 2 2 2 2 3 3 3 3 3 3 2 2 2
6 5 4 3 1 1 1 2 3 4 4 5 5 5 4 3 4 5 5 6 7 6 5 3 3 3 2 1 2 3 5 6 7 6 5 7 8 9 9 10 13 13 12 11 10 9 8 7 8 9 8 6 7 8 8 7 6 5 4 4 4 4 3 3 3 3 3 3 2 2 2 2 3 3 3 3 3 3 3 3 3 3 3 3 2 2 2
6 5 5 3 1 0 1 2 3 3 4 4 4 3 2 3 4 5 5 5 5 4 3 2 1 2 2 2 2 3 4 6 7 7 8 9 10 10 10 10 12 13 12 10 8 6 5 4 4 5 4 5 10 13 11 6 5 6 6 6 6 5 5 4 4 4 4 4 4 3 3 3 4 4 3 3 4 4 3 3 3 4 3 3 2 2 2
5 4 4 3 2 1 1 2 3 3 3 3 3 3 2 3 4 5 5 4 3 2 2 2 3 3 4 4 4 3 4 5 6 6 7 8 9 9 10 11 12 12 11 10 9 8 5 3 3 5 7 11 14 12 8 7 6 5 5 5 5 6 5 5 4 5 5 5 4 4 4 4 4 4 4 4 4 4 4 4 4 4 3 3 3 2 2
5 4 3 3 3 2 1 2 2 2 2 2 1 1 2 2 2 2 3 2 2 1 3 4 4 4 4 5 4 4 4 5 6 6 7 7 7 8 9 11 12 11 11 11 10 9 7 5 5 8 12 15 12 6 6 8 6 5 4 4 5 5 5 4 4 4 4 5 5 5 5 5 5 5 5 5 5 4 4 4 4 3 3 3 3 2 2
5 5 4 3 2 1 1 2 1 1 1 1 1 1 2 1 1 1 1 1 1 2 3 4 4 4 4 4 5 5 6 7 7 8 8 7 6 7 9 10 10 9 9 8 8 6 5 5 7 11 15 13 7 3 4 4 4 5 4 4 6 6 5 3 2 2 3 4 5 5 5 5 5 5 5 4 4 4 4 4 3 3 3 3 3 3 2
5 4 3 3 2 2 2 1 0 1 2 2 2 2 2 2 1 2 2 1 1 2 3 4 4 4 4 3 4 6 7 7 7 8 9 8 6 7 9 10 9 8 8 7 5 5 5 6 8 12 13 8 3 2 2 5 5 5 5 5 6 6 5 4 3 4 4 5 5 5 5 5 5 5 5 4 4 4 3 4 3 3 3 3 3 2 2
6 6 5 4 3 2 2 2 2 1 2 3 3 3 3 3 3 3 3 2 1 1 2 3 3 4 4 4 4 6 8 7 7 8 9 8 8 8 10 10 10 9 8 7 6 6 7 8 9 11 10 6 5 2 5 6 4 6 7 6 7 7 6 5 4 6 6 6 6 6 5 5 5 5 5 5 4 4 3 3 3 3 3 2 2 2 2
Wind_Direction
251 249 246 242 253 267 282 293 305 329 327 312 301 287 283 303 290 278 25 68 91 95 88 98 83 59 92 112 135 158 179 166 123 88 46 128 142 152 158 154 147 141 145 157 170 148 129 119 109 113 125 136 151 163 168 176 183 185 182 179 182 189 194 200 204 208 213 217 221 224 227 230 231 232 234 233 231 224 209 204 209 212 214 219 220 218 219
277 261 257 245 234 251 273 290 303 306 312 324 315 293 300 309 287 282 307 29 84 71 73 87 52 50 81 94 122 148 162 147 131 121 103 236 171 155 156 152 148 154 156 164 181 169 140 127 109 76 47 135 170 173 170 168 166 164 163 165 178 191 195 200 203 204 209 217 221 220 221 227 229 232 243 248 245 238 221 211 213 217 222 226 222 217 218
280 264 260 247 227 240 271 290 303 293 286 298 301 308 338 333 312 303 304 312 89 38 19 70 52 62 96 93 96 96 94 115 124 130 134 151 126 118 129 155 159 158 149 127 160 154 143 153 162 180 213 232 232 222 219 215 205 203 202 189 194 206 210 213 207 201 206 213 213 206 196 201 211 215 224 237 246 250 242 228 225 227 229 230 224 219 221
274 265 257 244 235 249 255 252 274 300 293 274 257 34 24 352 328 314 301 301 87 11 337 27 58 76 65 48 47 47 38 90 120 132 142 154 131 116 121 133 148 147 126 92 92 89 108 152 163 180 200 214 220 218 222 227 227 232 235 230 232 234 232 234 230 225 228 224 220 211 192 180 209 240 236 244 251 256 255 246 244 245 237 230 224 220 222
283 271 267 253 241 243 244 259 334 1 341 310 313 66 46 6 335 316 304 349 17 16 344 328 28 58 51 31 11 10 11 16 82 113 128 135 111 103 103 94 85 84 76 74 82 72 62 90 100 127 176 188 197 202 207 214 217 224 229 230 234 239 241 244 242 242 246 254 262 243 227 234 253 264 269 274 269 266 267 256 253 255 249 236 234 230 226
270 273 283 265 242 237 238 334 342 17 17 346 346 64 66 27 350 342 21 14 354 7 5 357 50 69 72 64 29 23 27 348 40 83 92 91 84 80 80 81 79 83 79 74 76 72 56 57 61 60 74 89 97 103 109 155 189 196 202 216 225 230 236 243 244 245 249 257 270 255 233 242 247 249 257 264 261 259 261 257 257 260 255 248 245 239 234
272 273 251 236 232 228 185 5 354 23 24 339 347 85 79 47 11 359 18 17 356 5 23 40 66 83 84 67 40 27 28 17 65 81 76 75 81 80 78 78 76 84 94 98 97 96 88 78 76 77 74 71 75 77 73 73 80 86 85 84 122 192 198 203 220 232 238 243 245 226 213 223 234 242 247 251 249 249 252 253 254 256 255 253 250 245 241
291 272 246 237 159 159 193 129 31 14 347 317 331 72 55 29 15 2 7 9 2 13 35 39 39 54 71 65 42 20 22 25 48 75 76 72 81 88 90 93 93 90 89 90 91 96 104 103 97 93 87 78 75 73 72 73 72 74 80 79 78 114 167 176 185 204 217 220 228 236 230 221 227 237 239 241 242 242 244 246 245 245 250 252 250 246 244
286 282 267 256 140 160 145 66 31 4 0 349 332 17 48 17 14 17 0 353 8 40 62 55 39 5 24 61 48 19 21 33 42 66 83 80 76 76 74 77 90 100 100 94 86 83 85 87 84 79 76 77 77 74 74 74 71 72 78 77 71 80 114 124 93 108 155 215 238 246 242 236 240 240 236 239 242 240 239 236 234 237 243 245 246 247 246
268 292 289 274 237 193 35 11 349 338 350 350 317 273 59 12 12 22 2 343 7 50 66 58 82 83 22 57 40 10 15 40 50 65 83 82 74 66 59 55 57 66 81 89 88 88 84 81 87 92 91 90 90 87 81 74 69 68 67 63 60 62 68 72 76 88 103 141 232 240 227 236 247 244 242 244 244 239 235 233 233 236 238 239 241 240 235
227 216 260 285 282 153 1 325 317 327 341 340 319 271 221 3 359 358 356 359 14 37 43 12 50 84 106 100 55 7 12 40 57 67 75 76 74 69 63 61 55 50 53 59 63 68 68 65 74 85 84 82 85 87 83 76 72 69 61 55 55 55 56 68 81 87 94 101 100 94 98 118 153 201 239 252 244 238 236 236 238 239 241 245 246 241 232
254 239 204 227 6 33 343 316 308 330 347 338 309 266 338 358 347 342 355 17 27 19 11 23 33 48 109 127 121 80 51 52 54 61 67 69 70 70 68 69 68 61 58 56 53 49 46 45 51 53 50 54 62 67 70 70 70 68 59 54 56 58 59 69 78 80 82 90 97 99 97 101 108 115 112 110 165 216 219 222 234 242 246 250 250 241 227
266 266 212 113 104 336 326 323 329 341 336 314 291 275 329 339 337 344 5 28 46 43 33 35 39 43 64 98 119 107 90 81 72 75 82 77 70 72 72 71 70 66 63 62 59 51 43 43 48 48 45 46 47 49 56 63 64 65 62 59 59 60 61 65 71 78 82 84 88 90 92 94 91 83 89 112 133 146 161 165 158 152 146 130 118 185 180
302 284 227 123 113 17 330 325 358 357 330 286 27 328 283 327 352 12 30 39 52 62 68 74 87 105 114 122 126 107 94 95 86 77 78 73 64 65 71 73 74 70 64 62 60 55 48 46 50 54 54 52 45 42 45 51 56 60 62 60 59 57 58 60 62 63 71 83 81 72 69 74 74 70 76 95 110 100 106 131 140 138 127 108 91 97 125
344 338 15 96 107 33 342 326 10 24 10 62 68 319 318 20 15 24 47 49 51 72 90 98 108 124 133 136 131 118 106 102 90 74 71 70 63 59 61 64 67 68 66 62 61 59 54 48 46 48 52 53 50 44 40 40 45 53 58 61 61 55 51 57 59 48 45 66 78 73 67 66 65 66 70 74 74 75 97 127 144 150 148 136 120 114 116
1 5 37 65 96 49 16 9 52 63 52 68 52 359 20 36 29 40 58 58 61 89 108 120 127 131 135 137 136 134 126 114 103 93 87 82 75 67 62 63 65 65 61 59 60 60 57 53 49 47 47 49 48 43 39 37 37 39 43 54 64 60 50 53 60 56 47 53 66 73 72 67 66 69 67 65 68 76 86 98 115 129 143 153 144 130 118
36 55 69 93 98 75 59 54 61 66 61 52 42 37 36 30 35 56 73 80 82 104 121 126 128 132 138 143 144 142 136 127 120 114 107 100 96 88 78 74 75 71 63 57 55 54 54 56 57 55 54 52 47 40 32 30 29 27 26 34 46 54 55 43 43 53 57 51 53 61 68 71 71 73 73 66 65 72 71 68 82 103 117 130 133 129 121
54 35 25 77 97 87 83 77 58 44 45 40 35 40 38 25 32 51 75 91 101 153 153 126 123 134 142 140 138 140 139 136 135 128 121 118 115 108 98 89 85 79 72 66 60 53 51 52 53 57 59 55 49 42 33 25 18 12 12 21 27 33 43 39 37 53 63 59 58 52 45 48 54 55 68 74 61 51 50 52 62 81 101 115 117 118 118
166 289 336 61 87 74 68 79 77 56 45 37 34 40 36 26 31 50 73 88 96 133 134 111 116 132 141 138 137 151 147 143 144 140 133 131 128 121 115 109 101 92 82 77 74 67 60 57 56 58 61 58 52 45 38 30 16 4 3 10 18 25 34 32 29 40 48 50 72 69 44 34 40 40 42 53 51 38 31 31 33 32 48 102 108 108 115
81 107 24 31 71 61 40 39 54 52 42 32 31 37 39 34 34 53 81 92 91 99 108 113 124 136 142 144 154 172 166 153 152 151 147 145 142 135 131 127 118 107 98 95 97 89 79 78 76 70 68 66 61 54 47 41 31 12 2 3 11 20 35 38 24 18 19 21 56 91 74 35 29 34 38 44 47 35 25 25 26 22 23 44 55 53 62
97 109 37 7 119 77 34 26 40 45 42 37 30 31 44 47 39 47 73 89 98 104 111 124 137 142 143 149 162 169 163 152 149 151 157 159 153 149 148 146 143 134 122 114 110 101 93 101 100 87 80 76 73 76 73 62 51 26 357 348 358 8 25 43 28 10 22 24 20 53 104 98 68 44 41 45 44 33 23 22 27 26 27 38 45 46 46
123 120 26 29 138 141 1 30 65 48 46 52 37 25 39 52 48 43 55 77 92 97 127 158 152 152 153 158 164 165 162 162 155 154 163 167 163 165 168 163 159 152 141 134 127 120 118 121 117 108 103 91 81 84 83 75 72 47 356 336 345 19 24 30 18 9 29 43 17 17 68 97 96 89 74 61 52 46 38 28 25 28 31 35 44 55 53
124 136 162 223 198 193 192 172 131 42 31 64 76 56 42 44 48 45 42 59 87 108 173 173 144 157 170 165 165 163 161 171 168 163 171 177 171 169 171 165 159 150 144 146 145 139 137 134 124 118 115 105 87 83 83 76 79 67 19 353 355 28 46 44 25 19 28 35 24 22 34 57 83 108 112 96 75 64 60 53 42 39 40 40 47 65 68
125 141 165 205 231 182 154 155 133 76 25 41 79 75 49 37 39 47 45 34 45 77 115 105 121 151 173 175 174 169 165 179 181 168 171 179 168 153 146 147 149 146 144 148 146 143 146 144 136 130 125 116 100 83 79 72 65 68 53 29 15 19 43 53 44 42 39 27 23 31 32 30 34 65 127 128 111 85 73 71 66 61 60 59 59 61 61
126 142 147 160 221 156 147 166 149 109 75 55 82 75 52 40 24 24 53 43 13 15 36 71 121 153 171 193 202 186 178 184 182 168 168 180 169 157 153 150 149 147 139 134 136 142 150 147 139 134 129 123 117 103 90 85 80 76 69 51 33 27 30 33 36 49 55 46 34 29 29 28 18 9 32 107 125 128 122 106 91 83 78 74 68 56 47
135 160 151 153 215 198 174 188 163 122 95 67 95 109 106 96 33 347 34 61 11 5 13 22 91 146 167 191 210 210 197 190 184 175 181 194 192 184 182 174 166 163 158 151 155 168 168 161 153 149 139 131 129 125 113 104 105 103 92 72 60 51 40 31 32 37 44 50 44 32 29 26 11 7 22 28 25 151 155 153 147 134 118 99 81 59 45
124 148 165 200 222 199 142 114 122 126 119 36 76 118 130 134 162 244 147 89 32 14 5 356 7 64 167 192 209 212 194 185 190 195 198 204 207 207 206 203 195 185 177 172 178 187 182 173 169 167 152 137 132 132 129 126 122 119 120 125 113 86 59 44 41 38 39 45 40 28 23 16 4 8 21 8 350 6 100 146 162 169 167 145 100 52 46
137 143 194 256 269 99 92 90 108 142 165 164 353 308 286 228 233 245 205 133 95 63 35 23 14 351 340 316 277 264 203 185 194 203 206 210 213 215 216 213 206 197 188 180 181 187 188 182 178 173 158 145 144 147 141 137 141 146 153 164 149 125 92 59 47 41 42 49 42 30 29 21 0 359 7 6 4 9 19 35 38 34 129 148 133 60 65
149 141 146 34 46 72 102 134 166 196 212 221 245 261 264 276 309 305 303 91 95 83 71 78 60 344 329 325 308 305 303 256 228 225 222 218 215 215 215 212 206 202 198 189 184 187 191 190 186 178 164 156 156 153 148 147 153 160 193 153 123 114 71 39 61 56 44 54 42 30 34 31 9 358 5 15 16 10 19 41 34 12 31 113 132 133 109
150 148 166 160 132 152 183 194 198 216 232 230 235 248 250 234 321 310 322 0 15 344 21 93 66 309 306 308 301 295 297 298 290 278 269 259 241 224 213 206 204 207 206 199 193 192 193 195 193 183 172 168 166 160 161 169 160 153 161 151 143 127 7 28 84 89 36 45 24 14 24 25 14 13 16 17 18 15 17 26 24 4 39 65 75 83 83
167 167 176 196 203 208 215 209 208 227 235 232 257 275 276 259 250 265 288 313 302 300 317 344 314 300 300 305 305 298 291 289 281 268 267 271 270 258 231 207 202 208 212 210 205 200 196 198 201 194 181 174 168 164 166 173 176 175 171 159 169 249 7 53 80 65 20 29 9 10 32 35 33 33 26 21 28 24 6 0 19 39 38 49 68 71 58
185 177 182 199 211 221 229 222 222 234 227 219 239 258 269 283 284 277 278 284 283 289 300 299 298 306 313 310 302 294 287 285 281 271 257 249 251 254 243 228 222 222 219 213 206 200 199 201 205 203 193 180 172 170 170 172 184 194 183 168 178 207 28 42 46 37 25 10 4 39 47 39 28 21 21 33 34 16 2 11 31 38 39 60 76 69 38
196 189 194 199 202 214 224 223 228 242 244 249 260 263 269 281 285 287 298 305 299 290 289 288 287 292 295 293 290 286 282 277 275 272 267 257 247 239 229 228 234 236 230 221 214 208 206 208 208 206 197 184 177 178 179 176 183 200 197 181 180 180 173 8 16 32 39 348 48 58 47 26 9 6 19 33 33 17 12 21 26 22 32 70 88 73 30
213 224 253 241 177 215 233 234 243 258 260 262 267 268 271 277 283 289 294 294 290 288 289 289 289 288 285 281 279 278 277 275 270 266 265 261 255 245 229 222 224 225 223 222 219 215 213 211 207 204 201 192 185 183 178 171 175 196 207 200 201 197 199 206 44 54 189 119 77 64 39 17 28 30 28 25 19 16 18 14 9 9 16 65 112 85 32
212 245 315 16 33 330 288 271 266 269 271 270 272 275 276 278 281 283 281 277 279 282 282 279 278 276 275 276 278 276 274 274 275 276 276 271 263 256 242 225 219 218 217 220 221 219 217 216 210 204 201 194 186 182 181 177 184 202 205 196 220 264 245 211 204 194 157 105 75 44 30 68 57 39 28 18 4 3 6 2 2 5 358 5 79 45 21
189 209 318 15 358 321 299 281 278 283 286 285 286 286 285 279 272 272 274 274 273 273 275 277 279 277 275 274 276 275 275 276 277 278 278 278 276 273 257 225 217 219 220 226 228 224 222 224 221 211 200 189 183 188 196 192 189 199 206 199 224 249 243 227 223 216 176 122 319 305 52 56 35 8 1 359 343 338 349 4 13 11 1 2 8 3 3
160 161 162 142 147 280 279 282 288 284 277 275 274 275 277 279 276 275 279 281 281 282 285 285 284 285 286 285 282 279 277 275 275 276 276 277 277 276 261 224 219 223 223 226 227 224 223 223 215 201 190 180 176 190 205 193 178 182 192 200 224 240 237 222 209 196 183 197 230 238 255 295 297 245 226 268 277 277 8 31 29 23 13 6 1 353 350
151 155 156 153 173 216 235 242 259 275 277 277 280 282 284 288 289 288 285 283 283 286 287 284 281 280 280 281 282 281 278 274 273 274 274 273 272 271 264 246 233 230 228 223 217 216 219 215 199 186 181 172 164 178 200 196 180 172 172 190 232 243 241 232 224 212 197 193 198 201 213 259 294 286 266 257 248 78 60 49 36 23 8 352 342 337 337
154 159 170 187 203 220 236 257 286 302 301 299 297 298 297 295 293 290 288 288 291 294 294 292 290 286 282 281 281 280 278 279 280 278 278 280 277 272 269 260 245 245 251 244 224 215 213 205 189 178 171 160 154 166 186 194 190 185 183 216 259 253 242 240 241 228 198 178 175 178 208 281 280 273 278 318 52 63 56 39 10 342 329 328 327 326 329
168 175 189 206 225 282 324 321 312 308 307 306 303 299 298 298 297 295 294 295 298 299 297 292 289 289 289 289 287 285 286 291 293 294 301 307 302 291 286 300 343 293 269 253 231 212 199 189 181 174 167 160 157 164 178 194 203 198 196 220 250 245 230 228 229 209 189 183 182 195 232 246 237 226 228 354 20 30 2 287 286 298 312 320 320 321 328
171 174 170 141 11 340 323 312 307 305 304 306 305 303 304 304 301 299 301 301 297 292 289 289 290 294 295 292 289 290 294 297 298 303 317 335 335 319 303 317 58 73 183 208 204 191 177 169 166 165 164 166 169 170 179 201 202 184 185 221 242 234 219 212 206 198 199 194 185 191 214 221 207 192 184 196 219 245 265 271 298 318 310 304 306 311 316
154 145 134 144 238 269 274 277 288 300 306 308 306 303 301 299 295 293 293 295 293 289 288 291 292 291 289 288 289 292 295 299 310 327 340 353 350 321 290 271 165 146 165 176 182 181 172 161 154 152 156 165 173 172 169 168 168 173 194 223 232 228 218 199 186 185 181 158 150 157 140 113 167 212 198 204 237 243 245 265 301 297 283 279 283 292 298
142 145 166 198 215 237 276 293 296 298 297 297 299 300 299 299 298 296 292 292 294 294 295 298 299 294 290 291 293 295 296 296 307 352 24 45 66 238 242 184 135 149 159 160 162 168 168 163 162 164 163 162 169 174 170 152 155 194 219 219 207 208 214 146 142 156 165 161 173 192 170 124 325 278 253 252 267 271 271 280 284 276 274 279 283 283 287
152 165 174 177 191 252 307 302 289 289 294 299 303 305 302 298 298 299 297 297 299 300 301 304 302 299 299 300 300 302 304 297 253 169 133 113 101 99 111 119 128 140 147 142 144 154 153 144 154 165 162 152 153 162 162 153 164 207 223 210 197 200 200 157 142 155 181 188 198 196 173 148 197 274 267 269 283 290 281 264 260 262 268 276 281 282 288
158 154 138 116 105 267 280 287 287 294 304 305 296 289 288 290 294 301 305 303 302 305 311 313 309 311 318 327 342 355 2 27 93 132 147 139 112 94 100 113 122 127 123 108 104 113 114 115 135 154 159 157 158 157 152 161 184 195 192 194 199 200 189 175 171 178 194 207 205 190 173 171 213 246 259 267 273 271 258 248 248 260 262 260 266 278 292
153 149 148 151 170 223 277 300 297 290 287 285 283 285 294 304 306 312 317 316 313 314 317 321 332 350 7 74 108 91 77 74 75 82 102 119 119 120 123 123 123 125 120 105 99 106 115 126 146 157 159 172 183 173 163 174 192 186 177 192 205 199 194 201 198 194 210 222 215 199 209 224 225 227 232 233 232 238 242 238 236 237 240 244 254 266 275
155 160 162 158 143 78 277 263 265 267 271 281 291 304 325 334 326 321 322 324 326 329 333 340 14 41 57 77 96 105 108 102 91 90 100 112 122 135 142 136 131 132 129 120 124 145 158 170 197 206 205 191 176 167 164 176 194 188 191 209 217 213 216 223 217 209 216 220 212 203 206 209 211 214 213 212 218 223 221 220 228 232 233 238 247 247 249
161 168 163 153 147 160 237 247 254 264 274 288 297 306 324 341 336 324 320 325 338 4 34 51 62 70 75 76 80 103 128 128 121 121 125 126 128 137 147 152 153 150 140 131 139 156 159 148 168 189 186 175 169 170 190 228 225 198 195 218 226 223 223 221 215 213 213 205 197 200 198 191 195 202 201 200 210 217 214 215 224 229 226 224 228 236 247
163 177 179 171 162 161 216 251 260 267 275 280 296 316 332 334 323 315 324 339 3 55 76 78 82 88 92 94 95 100 108 115 125 137 144 141 134 137 146 151 151 145 134 131 138 146 145 139 154 172 177 177 178 201 260 257 223 183 178 210 219 218 216 211 208 210 202 188 186 195 195 190 192 198 198 200 206 210 210 211 211 213 221 228 230 241 254
173 191 198 189 157 143 221 254 281 321 305 266 215 187 207 242 272 49 71 83 111 107 100 97 98 100 102 104 109 113 115 116 122 132 140 139 136 142 149 147 142 136 135 139 148 157 160 167 181 185 182 179 185 269 292 249 191 174 185 208 215 213 206 197 190 192 184 185 194 200 199 198 200 200 199 204 207 204 207 215 217 224 241 242 234 236 253
176 188 189 171 147 158 200 225 333 342 288 248 203 184 199 210 153 100 115 142 138 114 116 119 117 115 118 122 125 130 132 130 130 138 145 143 139 145 154 155 152 150 146 141 146 164 176 180 184 184 183 189 233 271 178 152 161 182 195 205 215 211 196 185 200 212 204 201 208 208 202 203 210 207 201 206 212 210 210 218 225 234 244 238 223 228 251
193 181 159 143 150 186 204 185 152 176 242 236 213 203 202 191 168 154 160 173 173 136 134 133 127 129 142 149 142 141 145 147 144 147 152 150 145 150 160 164 164 166 163 154 149 159 167 172 179 185 194 224 262 229 144 138 169 200 200 204 213 208 187 174 196 209 204 202 212 217 211 208 213 211 207 209 216 218 219 224 228 231 231 228 225 231 241